Tracking 30918 objects as of 2-Jul-2025
HD Live streaming from Space Station
objects crossing your sky now

COSMOS 252 DEB

Track COSMOS 252 DEB now!
10-day predictions


NORAD ID: 18431
Int'l Code: 1968-097EJ
Perigee: 530.9 km
Apogee: 1,854.7 km
Inclination: 62.3 °
Period: 109.1 minutes
Semi major axis: 7563 km
RCS: 0.017 m2 (small)
Launch date: November 1, 1968
Source: Commonwealth of Independent States (former USSR) (CIS)
Launch site: TYURATAM MISSILE AND SPACE COMPLEX (TTMTR)

Note: This is SATELLITE DEBRIS
Your satellite tracking list
COSMOS 2064
Track 1 satellite(s)




NASA's NSSDC Master Catalog

Two Line Element Set (TLE):
1 18431U 68097EJ  25182.52861166  .00000390  00000-0  15619-3 0  9997
2 18431  62.3449 267.8243 0875090  84.9719 285.0471 13.19749870402053
Source of the keplerian elements: AFSPC